Location: Byhalia Creek
(34.8270°N, 89.8040°W)
Time: 20:45:07
(UTC+00:00)

CZ-3 R/B - Pass Details

Date: 22 April 2026
Orbit: 564 x 9992 km, 28.2° (Epoch: 21 May)

Event Time Altitude Azimuth Distance (km) Brightness Sun altitude
Rises 10:40:57 0° 274° (W) 10,724 6.3 -8.2°
Reaches altitude 10° 10:51:36 10° 271° (W) 7,895 5.6 -6.1°
Maximum altitude 11:10:55 53° 202° (SSW) 2,011 3.0 -2.4°
Drops below altitude 10° 11:17:06 10° 125° (SE) 2,727 4.5 -1.1°
Sets 11:18:53 0° 119° (ESE) 3,361 5.1 -0.8°
